N0RWU Weather Reports


Display with metric or nautical units.
time (UTC)temp
F
wind
direction
speed
MPH
gust
MPH
rain 1hr
in
rain 24hr
in
rain mn
in
humidity
%
barometer
mb
20260502220827 67 216 5.0 6.0 0.00 0.00 0.00 28 1007.4
20260502215827 68 241 2.0 3.0 0.00 0.00 0.00 27 1007.7
20260502213827 67 258 3.0 5.0 0.00 0.00 0.00 30 1007.8
20260502212827 66 231 6.0 7.0 0.00 0.00 0.00 28 1007.8
20260502205826 66 254 4.0 5.0 0.00 0.00 0.00 28 1008.3
20260502202827 67 195 5.0 6.0 0.00 0.00 0.00 28 1008.6
20260502201827 63 244 10.0 11.0 0.00 0.00 0.00 29 1008.8
20260502200827 64 230 7.0 9.0 0.00 0.00 0.00 30 1009.1
20260502195827 63 150 1.0 2.0 0.00 0.00 0.00 30 1009.1
20260502194827 65 192 5.0 7.0 0.00 0.00 0.00 30 1009.1
20260502193827 64 237 3.0 4.0 0.00 0.00 0.00 34 1009.4
20260502192827 63 261 5.0 7.0 0.00 0.00 0.00 30 1009.8
20260502191827 65 196 2.0 3.0 0.00 0.00 0.00 33 1009.8
20260502190827 63 160 2.0 3.0 0.00 0.00 0.00 34 1009.9
20260502185827 62 222 4.0 4.0 0.00 0.00 0.00 34 1010.0
20260502184827 61 232 5.0 6.0 0.00 0.00 0.00 31 1010.2
20260502183827 62 198 0.0 1.0 0.00 0.00 0.00 31 1010.3
20260502182828 62 232 5.0 7.0 0.00 0.00 0.00 32 1010.4
20260502181827 61 255 5.0 7.0 0.00 0.00 0.00 33 1010.5
20260502180827 62 239 2.0 3.0 0.00 0.00 0.00 32 1010.6
20260502163827 59 184 2.0 3.0 0.00 0.00 0.00 36 1011.5
20260502162827 58 163 0.0 1.0 0.00 0.00 0.00 35 1011.5
20260502160827 58 109 6.0 7.0 0.00 0.00 0.00 34 1011.5
20260502151827 56 90 4.0 4.0 0.00 0.00 0.00 36 1012.0
20260502150827 58 73 1.0 2.0 0.00 0.00 0.00 41 1012.0
20260502122827 40 248 0.0 0.0 0.00 0.00 0.00 69 1012.0
20260502121827 39 278 0.0 0.0 0.00 0.00 0.00 75 1012.0
20260502115827 37 262 0.0 0.0 0.00 0.00 0.00 82 1011.8
20260502114827 34 270 0.0 0.0 0.00 0.00 0.00 84 1011.8
20260502113827 32 301 0.0 0.0 0.00 0.00 0.00 85 1011.6
20260502112828 31 304 0.0 0.0 0.00 0.00 0.00 85 1011.5
20260502111827 30 304 0.0 0.0 0.00 0.00 0.00 84 1011.5
20260502105827 30 303 0.0 0.0 0.00 0.00 0.00 83 1011.4
20260502104828 30 302 0.0 0.0 0.00 0.00 0.00 83 1011.4
20260502103827 31 303 0.0 0.0 0.00 0.00 0.00 84 1011.4
20260502102827 31 288 1.0 2.0 0.00 0.00 0.00 83 1011.2
20260502101827 31 289 0.0 0.0 0.00 0.00 0.00 83 1011.1
20260502100827 32 289 0.0 0.0 0.00 0.00 0.00 83 1011.1
20260502090828 34 288 0.0 0.0 0.00 0.00 0.00 81 1011.1
20260502070827 37 276 0.0 0.0 0.00 0.00 0.00 76 1011.1
20260502065827 38 253 1.0 2.0 0.00 0.00 0.00 75 1011.2
20260502064827 38 263 1.0 1.0 0.00 0.00 0.00 74 1011.2
20260502063826 38 286 1.0 2.0 0.00 0.00 0.00 74 1011.1
20260502062827 39 246 0.0 1.0 0.00 0.00 0.00 74 1011.1
20260502061826 40 256 0.0 1.0 0.00 0.00 0.00 73 1011.2
20260502060827 40 262 1.0 2.0 0.00 0.00 0.00 72 1011.1
20260502055827 40 277 0.0 1.0 0.00 0.00 0.00 72 1011.2
20260502054828 40 250 0.0 1.0 0.00 0.00 0.00 72 1011.0
20260502053827 41 271 0.0 0.0 0.00 0.00 0.00 71 1011.0
20260502052827 41 277 1.0 1.0 0.00 0.00 0.00 70 1010.9
20260502051827 42 273 0.0 0.0 0.00 0.00 0.00 67 1010.9
20260502050827 42 280 1.0 2.0 0.00 0.00 0.00 66 1010.8
20260502045827 42 273 0.0 0.0 0.00 0.00 0.00 66 1010.8
20260502044827 42 282 0.0 0.0 0.00 0.00 0.00 66 1010.8
20260502043827 42 275 0.0 0.0 0.00 0.00 0.00 65 1010.6
20260502042826 43 303 0.0 0.0 0.00 0.00 0.00 64 1010.6
20260502041827 44 303 0.0 1.0 0.00 0.00 0.00 62 1010.6
20260502040827 44 342 0.0 1.0 0.00 0.00 0.00 61 1010.6
20260502035827 45 329 2.0 2.0 0.00 0.00 0.00 60 1010.6
20260502034827 45 284 2.0 2.0 0.00 0.00 0.00 61 1010.6
20260502033827 44 307 0.0 0.0 0.00 0.00 0.00 62 1010.5
20260502031827 46 276 0.0 0.0 0.00 0.00 0.00 61 1010.3
20260502030827 46 307 0.0 0.0 0.00 0.00 0.00 60 1010.4
20260502025827 46 135 0.0 0.0 0.00 0.00 0.00 59 1010.2
20260502023827 48 283 1.0 2.0 0.00 0.00 0.00 55 1010.0
20260502022827 48 272 1.0 2.0 0.00 0.00 0.00 54 1009.9
20260502015826 48 22 2.0 3.0 0.00 0.00 0.00 53 1009.5
20260502014827 49 273 1.0 2.0 0.00 0.00 0.00 53 1009.4
20260502013827 49 290 1.0 2.0 0.00 0.00 0.00 54 1009.3
20260502012826 49 288 1.0 1.0 0.00 0.00 0.00 53 1009.2
20260502011828 50 250 0.0 0.0 0.00 0.00 0.00 50 1009.1
20260502003827 53 306 2.0 3.0 0.00 0.00 0.00 44 1008.7
20260502002827 54 310 3.0 4.0 0.00 0.00 0.00 42 1008.6
20260502000827 56 316 6.0 7.0 0.00 0.00 0.00 41 1008.4
20260501235827 56 127 7.0 10.0 0.00 0.00 0.00 40 1008.3
20260501234827 57 90 4.0 6.0 0.00 0.00 0.00 41 1008.4
20260501233827 57 270 2.0 3.0 0.00 0.00 0.00 42 1008.3
20260501232827 55 110 6.0 9.0 0.00 0.00 0.00 43 1008.5
20260501231827 55 88 4.0 5.0 0.00 0.00 0.00 43 1008.5
20260501230827 56 254 1.0 1.0 0.00 0.00 0.00 43 1008.5
20260501225827 56 279 6.0 8.0 0.00 0.00 0.00 42 1008.4
20260501224827 56 18 3.0 4.0 0.00 0.00 0.00 42 1008.4
20260501223827 58 216 4.0 4.0 0.00 0.00 0.00 39 1008.4
20260501222827 59 288 5.0 7.0 0.00 0.00 0.00 39 1008.5